Time,TemperatureF,DewpointF,PressureIn,WindDirection,WindDirectionDegrees,WindSpeedMPH,WindSpeedGustMPH,Humidity,HourlyPrecipIn,Conditions,Clouds,dailyrainin,SoftwareType,DateUTC
2013-05-02 00:04:00,32.0,-99.9,29.20,NE,45,0.0,-999.0,-999,-99.99,,,-99.99,,2013-05-01 23:04:00,
2013-05-02 00:10:00,31.2,-99.9,29.20,NE,45,0.0,-999.0,-999,-99.99,,,-99.99,,2013-05-01 23:10:00,
2013-05-02 00:17:00,30.5,-99.9,29.20,NE,45,0.0,-999.0,-999,-99.99,,,-99.99,,2013-05-01 23:17:00,
2013-05-02 00:23:00,30.1,-99.9,29.20,NE,45,0.0,-999.0,-999,-99.99,,,-99.99,,2013-05-01 23:23:00,
2013-05-02 00:29:00,29.9,-99.9,29.20,NE,45,0.0,-999.0,-999,-99.99,,,-99.99,,2013-05-01 23:29:00,
2013-05-02 00:36:00,29.8,-99.9,29.20,NE,45,0.0,-999.0,-999,-99.99,,,-99.99,,2013-05-01 23:36:00,
2013-05-02 00:42:00,29.9,-99.9,29.20,NE,45,0.0,-999.0,-999,-99.99,,,-99.99,,2013-05-01 23:42:00,
2013-05-02 00:48:00,29.8,-99.9,29.20,NE,45,0.0,-999.0,-999,-99.99,,,-99.99,,2013-05-01 23:48:00,
2013-05-02 00:55:00,29.6,-99.9,29.20,NE,45,0.0,-999.0,-999,-99.99,,,-99.99,,2013-05-01 23:55:00,
2013-05-02 01:01:00,29.8,-99.9,29.20,NNE,22,0.0,-999.0,-999,-99.99,,,-99.99,,2013-05-02 00:01:00,
2013-05-02 01:07:00,29.5,-99.9,29.20,NNE,22,0.0,-999.0,-999,-99.99,,,-99.99,,2013-05-02 00:07:00,
2013-05-02 01:13:00,29.2,-99.9,29.20,NNE,22,0.0,-999.0,-999,-99.99,,,-99.99,,2013-05-02 00:13:00,
2013-05-02 01:19:00,29.0,-99.9,29.20,NNE,22,0.0,-999.0,-999,-99.99,,,-99.99,,2013-05-02 00:19:00,
2013-05-02 01:26:00,28.6,-99.9,29.20,NNE,22,0.0,-999.0,-999,-99.99,,,-99.99,,2013-05-02 00:26:00,
2013-05-02 01:32:00,28.4,-99.9,29.20,NNE,22,0.0,-999.0,-999,-99.99,,,-99.99,,2013-05-02 00:32:00,
2013-05-02 01:38:00,28.2,-99.9,29.19,NNE,22,0.0,-999.0,-999,-99.99,,,-99.99,,2013-05-02 00:38:00,
2013-05-02 01:44:00,28.1,-99.9,29.19,NNE,22,0.0,-999.0,-999,-99.99,,,-99.99,,2013-05-02 00:44:00,
2013-05-02 01:51:00,28.2,-99.9,29.19,NNE,22,0.0,-999.0,-999,-99.99,,,-99.99,,2013-05-02 00:51:00,
2013-05-02 01:57:00,28.5,-99.9,29.19,NNE,22,0.0,-999.0,-999,-99.99,,,-99.99,,2013-05-02 00:57:00,
2013-05-02 02:03:00,29.0,-99.9,29.19,NW,315,1.0,-999.0,-999,-99.99,,,-99.99,,2013-05-02 01:03:00,
2013-05-02 02:09:00,29.5,-99.9,29.19,NW,315,0.0,-999.0,-999,-99.99,,,-99.99,,2013-05-02 01:09:00,
2013-05-02 02:16:00,29.9,-99.9,29.19,NW,315,0.0,-999.0,-999,-99.99,,,-99.99,,2013-05-02 01:16:00,
2013-05-02 02:22:00,29.6,-99.9,29.19,NW,315,0.0,-999.0,-999,-99.99,,,-99.99,,2013-05-02 01:22:00,
2013-05-02 02:28:00,29.6,-99.9,29.19,NW,315,1.0,-999.0,-999,-99.99,,,-99.99,,2013-05-02 01:28:00,
2013-05-02 02:34:00,29.6,-99.9,29.19,NW,315,1.0,-999.0,-999,-99.99,,,-99.99,,2013-05-02 01:34:00,
2013-05-02 02:41:00,29.3,-99.9,29.19,NNE,22,2.0,-999.0,-999,-99.99,,,-99.99,,2013-05-02 01:41:00,
2013-05-02 02:47:00,29.4,-99.9,29.19,North,0,2.0,-999.0,-999,-99.99,,,-99.99,,2013-05-02 01:47:00,
2013-05-02 02:53:00,29.5,-99.9,29.18,NW,315,1.0,-999.0,-999,-99.99,,,-99.99,,2013-05-02 01:53:00,
2013-05-02 02:59:00,29.5,-99.9,29.18,NNW,337,2.0,-999.0,-999,-99.99,,,-99.99,,2013-05-02 01:59:00,
2013-05-02 03:06:00,29.3,-99.9,29.18,NNW,337,1.0,-999.0,-999,-99.99,,,-99.99,,2013-05-02 02:06:00,
2013-05-02 03:12:00,28.9,-99.9,29.18,NNW,337,0.0,-999.0,-999,-99.99,,,-99.99,,2013-05-02 02:12:00,
2013-05-02 03:18:00,28.5,-99.9,29.18,NW,315,1.0,-999.0,-999,-99.99,,,-99.99,,2013-05-02 02:18:00,
2013-05-02 03:24:00,28.3,-99.9,29.18,NW,315,2.0,-999.0,-999,-99.99,,,-99.99,,2013-05-02 02:24:00,
2013-05-02 03:30:00,28.3,-99.9,29.18,West,270,1.0,-999.0,-999,-99.99,,,-99.99,,2013-05-02 02:30:00,
2013-05-02 03:37:00,28.3,-99.9,29.18,North,0,2.0,-999.0,-999,-99.99,,,-99.99,,2013-05-02 02:37:00,
2013-05-02 03:43:00,28.4,-99.9,29.18,SE,135,1.0,-999.0,-999,-99.99,,,-99.99,,2013-05-02 02:43:00,
2013-05-02 03:49:00,28.5,-99.9,29.18,ESE,112,3.0,-999.0,-999,-99.99,,,-99.99,,2013-05-02 02:49:00,
2013-05-02 03:55:00,28.3,-99.9,29.17,North,0,0.0,-999.0,-999,-99.99,,,-99.99,,2013-05-02 02:55:00,
2013-05-02 04:02:00,28.3,-99.9,29.17,East,90,2.0,-999.0,-999,-99.99,,,-99.99,,2013-05-02 03:02:00,
2013-05-02 04:08:00,28.4,-99.9,29.17,NW,315,1.0,-999.0,-999,-99.99,,,-99.99,,2013-05-02 03:08:00,
2013-05-02 04:15:00,28.5,-99.9,29.17,North,0,2.0,-999.0,-999,-99.99,,,-99.99,,2013-05-02 03:15:00,
2013-05-02 04:21:00,28.7,-99.9,29.16,North,0,2.0,-999.0,-999,-99.99,,,-99.99,,2013-05-02 03:21:00,
2013-05-02 04:27:00,29.1,-99.9,29.16,North,0,1.0,-999.0,-999,-99.99,,,-99.99,,2013-05-02 03:27:00,
2013-05-02 04:34:00,29.2,-99.9,29.16,North,0,2.0,-999.0,-999,-99.99,,,-99.99,,2013-05-02 03:34:00,
2013-05-02 04:40:00,29.4,-99.9,29.16,NNW,337,3.0,-999.0,-999,-99.99,,,-99.99,,2013-05-02 03:40:00,
2013-05-02 04:46:00,29.8,-99.9,29.16,NNW,337,3.0,-999.0,-999,-99.99,,,-99.99,,2013-05-02 03:46:00,
2013-05-02 04:53:00,29.6,-99.9,29.16,NNW,337,3.0,-999.0,-999,-99.99,,,-99.99,,2013-05-02 03:53:00,
2013-05-02 04:59:00,30.0,-99.9,29.16,NNE,22,4.0,-999.0,-999,-99.99,,,-99.99,,2013-05-02 03:59:00,
2013-05-02 05:01:00,30.1,-99.9,29.16,North,0,2.0,-999.0,-999,-99.99,,,-99.99,,2013-05-02 04:01:00,
2013-05-02 05:03:00,30.2,-99.9,29.16,NNW,337,4.0,-999.0,-999,-99.99,,,-99.99,,2013-05-02 04:03:00,
2013-05-02 05:05:00,30.2,-99.9,29.16,NNE,22,3.0,-999.0,-999,-99.99,,,-99.99,,2013-05-02 04:05:00,
2013-05-02 05:07:00,30.2,-99.9,29.16,North,0,1.0,-999.0,-999,-99.99,,,-99.99,,2013-05-02 04:07:00,
2013-05-02 05:13:00,30.1,-99.9,29.16,NNE,22,5.0,-999.0,-999,-99.99,,,-99.99,,2013-05-02 04:13:00,
2013-05-02 05:16:00,30.0,-99.9,29.15,NNW,337,2.0,-999.0,-999,-99.99,,,-99.99,,2013-05-02 04:16:00,
2013-05-02 05:22:00,29.8,-99.9,29.15,NNW,337,2.0,-999.0,-999,-99.99,,,-99.99,,2013-05-02 04:22:00,
2013-05-02 05:28:00,29.6,-99.9,29.15,NW,315,2.0,-999.0,-999,-99.99,,,-99.99,,2013-05-02 04:28:00,
2013-05-02 05:34:00,29.5,-99.9,29.16,NW,315,3.0,-999.0,-999,-99.99,,,-99.99,,2013-05-02 04:34:00,
2013-05-02 05:40:00,29.3,-99.9,29.16,West,270,2.0,-999.0,-999,-99.99,,,-99.99,,2013-05-02 04:40:00,
2013-05-02 05:47:00,29.3,-99.9,29.16,NNE,22,2.0,-999.0,-999,-99.99,,,-99.99,,2013-05-02 04:47:00,
2013-05-02 05:53:00,29.4,-99.9,29.16,NNW,337,0.0,-999.0,-999,-99.99,,,-99.99,,2013-05-02 04:53:00,
2013-05-02 06:00:00,29.1,-99.9,29.16,NNW,337,0.0,-999.0,-999,-99.99,,,-99.99,,2013-05-02 05:00:00,
2013-05-02 06:06:00,29.2,-99.9,29.17,NNW,337,0.0,-999.0,-999,-99.99,,,-99.99,,2013-05-02 05:06:00,
2013-05-02 06:12:00,30.1,-99.9,29.17,NNW,337,0.0,-999.0,-999,-99.99,,,-99.99,,2013-05-02 05:12:00,
2013-05-02 06:19:00,30.5,-99.9,29.17,NNW,337,0.0,-999.0,-999,-99.99,,,-99.99,,2013-05-02 05:19:00,
2013-05-02 06:25:00,31.8,-99.9,29.17,NW,315,0.0,-999.0,-999,-99.99,,,-99.99,,2013-05-02 05:25:00,
2013-05-02 06:31:00,33.7,-99.9,29.17,West,270,0.0,-999.0,-999,-99.99,,,-99.99,,2013-05-02 05:31:00,
2013-05-02 06:37:00,35.7,-99.9,29.17,West,270,0.0,-999.0,-999,-99.99,,,-99.99,,2013-05-02 05:37:00,
2013-05-02 06:44:00,37.1,-99.9,29.17,SW,225,1.0,-999.0,-999,-99.99,,,-99.99,,2013-05-02 05:44:00,
2013-05-02 06:50:00,38.4,-99.9,29.17,SSW,202,0.0,-999.0,-999,-99.99,,,-99.99,,2013-05-02 05:50:00,
2013-05-02 06:56:00,38.5,-99.9,29.18,SW,225,2.0,-999.0,-999,-99.99,,,-99.99,,2013-05-02 05:56:00,
2013-05-02 07:03:00,38.9,-99.9,29.18,SW,225,0.0,-999.0,-999,-99.99,,,-99.99,,2013-05-02 06:03:00,
2013-05-02 07:09:00,39.0,-99.9,29.18,ENE,67,0.0,-999.0,-999,-99.99,,,-99.99,,2013-05-02 06:09:00,
2013-05-02 07:15:00,39.2,-99.9,29.18,South,180,2.0,-999.0,-999,-99.99,,,-99.99,,2013-05-02 06:15:00,
2013-05-02 07:21:00,39.0,-99.9,29.18,SE,135,0.0,-999.0,-999,-99.99,,,-99.99,,2013-05-02 06:21:00,
2013-05-02 07:27:00,38.9,-99.9,29.18,SE,135,1.0,-999.0,-999,-99.99,,,-99.99,,2013-05-02 06:27:00,
2013-05-02 07:34:00,39.0,-99.9,29.18,SSE,157,2.0,-999.0,-999,-99.99,,,-99.99,,2013-05-02 06:34:00,
2013-05-02 07:40:00,39.4,-99.9,29.18,SSE,157,1.0,-999.0,-999,-99.99,,,-99.99,,2013-05-02 06:40:00,
2013-05-02 07:46:00,39.8,-99.9,29.18,SW,225,2.0,-999.0,-999,-99.99,,,-99.99,,2013-05-02 06:46:00,
2013-05-02 07:52:00,40.2,-99.9,29.18,South,180,0.0,-999.0,-999,-99.99,,,-99.99,,2013-05-02 06:52:00,
2013-05-02 07:59:00,40.9,-99.9,29.18,SW,225,3.0,-999.0,-999,-99.99,,,-99.99,,2013-05-02 06:59:00,
2013-05-02 08:05:00,41.3,-99.9,29.18,SSW,202,0.0,-999.0,-999,-99.99,,,-99.99,,2013-05-02 07:05:00,
2013-05-02 08:11:00,42.9,-99.9,29.18,South,180,1.0,-999.0,-999,-99.99,,,-99.99,,2013-05-02 07:11:00,
2013-05-02 08:17:00,45.6,-99.9,29.18,ESE,112,1.0,-999.0,-999,-99.99,,,-99.99,,2013-05-02 07:17:00,
2013-05-02 08:24:00,48.2,-99.9,29.18,SSE,157,2.0,-999.0,-999,-99.99,,,-99.99,,2013-05-02 07:24:00,
2013-05-02 08:29:00,49.4,-99.9,29.18,SW,225,-999.0,-999.0,-999,-99.99,,,-99.99,,2013-05-02 07:29:00,
2013-05-02 08:35:00,50.0,-99.9,29.18,SW,225,4.0,-999.0,-999,-99.99,,,-99.99,,2013-05-02 07:35:00,
2013-05-02 08:41:00,50.8,-99.9,29.18,WSW,247,2.0,-999.0,-999,-99.99,,,-99.99,,2013-05-02 07:41:00,
2013-05-02 08:47:00,51.0,-99.9,29.18,South,180,4.0,-999.0,-999,-99.99,,,-99.99,,2013-05-02 07:47:00,
2013-05-02 08:54:00,51.1,-99.9,29.18,SW,225,5.0,-999.0,-999,-99.99,,,-99.99,,2013-05-02 07:54:00,
2013-05-02 09:00:00,51.0,-99.9,29.18,WSW,247,5.0,-999.0,-999,-99.99,,,-99.99,,2013-05-02 08:00:00,
2013-05-02 09:06:00,50.5,-99.9,29.18,SW,225,5.0,-999.0,-999,-99.99,,,-99.99,,2013-05-02 08:06:00,
2013-05-02 09:12:00,49.3,-99.9,29.18,WSW,247,6.0,-999.0,-999,-99.99,,,-99.99,,2013-05-02 08:12:00,
2013-05-02 09:18:00,48.5,-99.9,29.17,WSW,247,6.0,-999.0,-999,-99.99,,,-99.99,,2013-05-02 08:18:00,
2013-05-02 09:25:00,47.8,-99.9,29.18,SW,225,4.0,-999.0,-999,-99.99,,,-99.99,,2013-05-02 08:25:00,
2013-05-02 09:31:00,47.8,-99.9,29.17,WSW,247,3.0,-999.0,-999,-99.99,,,-99.99,,2013-05-02 08:31:00,
2013-05-02 09:38:00,47.5,-99.9,29.17,WSW,247,-999.0,-999.0,-999,-99.99,,,-99.99,,2013-05-02 08:38:00,
2013-05-02 09:44:00,47.5,-99.9,29.17,WSW,247,6.0,-999.0,-999,-99.99,,,-99.99,,2013-05-02 08:44:00,
2013-05-02 09:50:00,47.4,-99.9,29.17,SW,225,4.0,-999.0,-999,-99.99,,,-99.99,,2013-05-02 08:50:00,
2013-05-02 09:56:00,47.9,-99.9,29.17,SW,225,5.0,-999.0,-999,-99.99,,,-99.99,,2013-05-02 08:56:00,
2013-05-02 10:03:00,48.1,-99.9,29.17,SSW,202,5.0,-999.0,-999,-99.99,,,-99.99,,2013-05-02 09:03:00,
2013-05-02 10:09:00,48.9,-99.9,29.17,WSW,247,4.0,-999.0,-999,-99.99,,,-99.99,,2013-05-02 09:09:00,
2013-05-02 10:15:00,50.2,-99.9,29.17,WNW,292,4.0,-999.0,-999,-99.99,,,-99.99,,2013-05-02 09:15:00,
2013-05-02 10:21:00,51.3,-99.9,29.17,WSW,247,4.0,-999.0,-999,-99.99,,,-99.99,,2013-05-02 09:21:00,
2013-05-02 10:28:00,52.1,-99.9,29.16,WNW,292,-999.0,-999.0,-999,-99.99,,,-99.99,,2013-05-02 09:28:00,
2013-05-02 10:34:00,53.5,-99.9,29.16,WSW,247,7.0,-999.0,-999,-99.99,,,-99.99,,2013-05-02 09:34:00,
2013-05-02 10:40:00,54.5,-99.9,29.16,West,270,5.0,-999.0,-999,-99.99,,,-99.99,,2013-05-02 09:40:00,
2013-05-02 10:46:00,55.1,-99.9,29.16,WSW,247,7.0,-999.0,-999,-99.99,,,-99.99,,2013-05-02 09:46:00,
2013-05-02 10:53:00,54.3,-99.9,29.16,WSW,247,6.0,-999.0,-999,-99.99,,,-99.99,,2013-05-02 09:53:00,
2013-05-02 10:59:00,52.9,-99.9,29.16,West,270,10.0,-999.0,-999,-99.99,,,-99.99,,2013-05-02 09:59:00,
2013-05-02 11:05:00,52.4,-99.9,29.16,WNW,292,8.0,-999.0,-999,-99.99,,,-99.99,,2013-05-02 10:05:00,
2013-05-02 11:12:00,52.1,-99.9,29.16,SW,225,-999.0,-999.0,-999,-99.99,,,-99.99,,2013-05-02 10:12:00,
2013-05-02 11:18:00,51.8,-99.9,29.16,NW,315,10.0,-999.0,-999,-99.99,,,-99.99,,2013-05-02 10:18:00,
2013-05-02 11:24:00,51.3,-99.9,29.16,WSW,247,7.0,-999.0,-999,-99.99,,,-99.99,,2013-05-02 10:24:00,
2013-05-02 11:30:00,51.9,-99.9,29.16,WNW,292,9.0,-999.0,-999,-99.99,,,-99.99,,2013-05-02 10:30:00,
2013-05-02 11:40:00,53.3,-99.9,29.15,South,180,-999.0,-999.0,-999,-99.99,,,-99.99,,2013-05-02 10:40:00,
2013-05-02 11:46:00,54.0,-99.9,29.15,WNW,292,10.0,-999.0,-999,-99.99,,,-99.99,,2013-05-02 10:46:00,
2013-05-02 11:52:00,53.5,-99.9,29.15,NW,315,7.0,-999.0,-999,-99.99,,,-99.99,,2013-05-02 10:52:00,
2013-05-02 11:58:00,52.9,-99.9,29.15,West,270,10.0,-999.0,-999,-99.99,,,-99.99,,2013-05-02 10:58:00,
2013-05-02 12:05:00,52.8,-99.9,29.15,WNW,292,8.0,-999.0,-999,-99.99,,,-99.99,,2013-05-02 11:05:00,
2013-05-02 12:11:00,53.2,-99.9,29.15,WNW,292,9.0,-999.0,-999,-99.99,,,-99.99,,2013-05-02 11:11:00,
2013-05-02 12:17:00,53.0,-99.9,29.15,West,270,8.0,-999.0,-999,-99.99,,,-99.99,,2013-05-02 11:17:00,
2013-05-02 12:23:00,53.0,-99.9,29.15,West,270,9.0,-999.0,-999,-99.99,,,-99.99,,2013-05-02 11:23:00,
2013-05-02 12:30:00,53.3,-99.9,29.14,West,270,9.0,-999.0,-999,-99.99,,,-99.99,,2013-05-02 11:30:00,
2013-05-02 12:36:00,53.9,-99.9,29.14,WNW,292,8.0,-999.0,-999,-99.99,,,-99.99,,2013-05-02 11:36:00,
2013-05-02 12:42:00,55.0,-99.9,29.14,WSW,247,10.0,-999.0,-999,-99.99,,,-99.99,,2013-05-02 11:42:00,
2013-05-02 12:48:00,55.0,-99.9,29.14,WSW,247,9.0,-999.0,-999,-99.99,,,-99.99,,2013-05-02 11:48:00,
2013-05-02 12:55:00,55.5,-99.9,29.13,West,270,6.0,-999.0,-999,-99.99,,,-99.99,,2013-05-02 11:55:00,
2013-05-02 13:01:00,56.5,-99.9,29.13,WNW,292,9.0,-999.0,-999,-99.99,,,-99.99,,2013-05-02 12:01:00,
2013-05-02 13:07:00,57.3,-99.9,29.13,SW,225,9.0,-999.0,-999,-99.99,,,-99.99,,2013-05-02 12:07:00,
2013-05-02 13:13:00,57.5,-99.9,29.13,SW,225,12.0,-999.0,-999,-99.99,,,-99.99,,2013-05-02 12:13:00,
2013-05-02 13:20:00,56.8,-99.9,29.13,WSW,247,10.0,-999.0,-999,-99.99,,,-99.99,,2013-05-02 12:20:00,
2013-05-02 13:26:00,57.2,-99.9,29.13,WNW,292,8.0,-999.0,-999,-99.99,,,-99.99,,2013-05-02 12:26:00,
2013-05-02 13:32:00,57.8,-99.9,29.12,NNW,337,9.0,-999.0,-999,-99.99,,,-99.99,,2013-05-02 12:32:00,
2013-05-02 13:38:00,57.0,-99.9,29.12,West,270,8.0,-999.0,-999,-99.99,,,-99.99,,2013-05-02 12:38:00,
2013-05-02 13:45:00,56.3,-99.9,29.12,West,270,9.0,-999.0,-999,-99.99,,,-99.99,,2013-05-02 12:45:00,
2013-05-02 13:51:00,56.3,-99.9,29.12,NW,315,9.0,-999.0,-999,-99.99,,,-99.99,,2013-05-02 12:51:00,
2013-05-02 13:57:00,55.8,-99.9,29.12,WSW,247,12.0,-999.0,-999,-99.99,,,-99.99,,2013-05-02 12:57:00,
2013-05-02 14:03:00,55.3,-99.9,29.12,NW,315,12.0,-999.0,-999,-99.99,,,-99.99,,2013-05-02 13:03:00,
2013-05-02 14:10:00,54.0,-99.9,29.11,NW,315,8.0,-999.0,-999,-99.99,,,-99.99,,2013-05-02 13:10:00,
2013-05-02 14:16:00,53.8,-99.9,29.11,West,270,14.0,-999.0,-999,-99.99,,,-99.99,,2013-05-02 13:16:00,
2013-05-02 14:22:00,53.8,-99.9,29.11,NW,315,9.0,-999.0,-999,-99.99,,,-99.99,,2013-05-02 13:22:00,
2013-05-02 14:29:00,53.7,-99.9,29.11,WNW,292,-999.0,-999.0,-999,-99.99,,,-99.99,,2013-05-02 13:29:00,
2013-05-02 14:35:00,53.4,-99.9,29.11,WSW,247,8.0,-999.0,-999,-99.99,,,-99.99,,2013-05-02 13:35:00,
2013-05-02 14:41:00,53.2,-99.9,29.10,WNW,292,11.0,-999.0,-999,-99.99,,,-99.99,,2013-05-02 13:41:00,
2013-05-02 14:47:00,53.0,-99.9,29.10,West,270,12.0,-999.0,-999,-99.99,,,-99.99,,2013-05-02 13:47:00,
2013-05-02 14:54:00,53.0,-99.9,29.10,WNW,292,12.0,-999.0,-999,-99.99,,,-99.99,,2013-05-02 13:54:00,
2013-05-02 15:00:00,54.7,-99.9,29.09,West,270,14.0,-999.0,-999,-99.99,,,-99.99,,2013-05-02 14:00:00,
2013-05-02 15:06:00,54.6,-99.9,29.09,West,270,14.0,-999.0,-999,-99.99,,,-99.99,,2013-05-02 14:06:00,
2013-05-02 15:12:00,53.4,-99.9,29.09,WNW,292,16.0,-999.0,-999,-99.99,,,-99.99,,2013-05-02 14:12:00,
2013-05-02 15:19:00,53.2,-99.9,29.08,NW,315,13.0,-999.0,-999,-99.99,,,-99.99,,2013-05-02 14:19:00,
2013-05-02 15:25:00,53.8,-99.9,29.08,West,270,16.0,-999.0,-999,-99.99,,,-99.99,,2013-05-02 14:25:00,
2013-05-02 15:31:00,53.9,-99.9,29.08,NW,315,11.0,-999.0,-999,-99.99,,,-99.99,,2013-05-02 14:31:00,
2013-05-02 15:37:00,53.2,-99.9,29.08,West,270,12.0,-999.0,-999,-99.99,,,-99.99,,2013-05-02 14:37:00,
2013-05-02 15:44:00,52.8,-99.9,29.08,West,270,12.0,-999.0,-999,-99.99,,,-99.99,,2013-05-02 14:44:00,
2013-05-02 15:50:00,52.7,-99.9,29.07,West,270,13.0,-999.0,-999,-99.99,,,-99.99,,2013-05-02 14:50:00,
2013-05-02 15:56:00,52.7,-99.9,29.08,WSW,247,10.0,-999.0,-999,-99.99,,,-99.99,,2013-05-02 14:56:00,
2013-05-02 16:02:00,52.9,-99.9,29.07,WNW,292,12.0,-999.0,-999,-99.99,,,-99.99,,2013-05-02 15:02:00,
2013-05-02 16:09:00,52.5,-99.9,29.07,WNW,292,14.0,-999.0,-999,-99.99,,,-99.99,,2013-05-02 15:09:00,
2013-05-02 16:15:00,52.1,-99.9,29.07,WNW,292,13.0,-999.0,-999,-99.99,,,-99.99,,2013-05-02 15:15:00,
2013-05-02 16:21:00,51.9,-99.9,29.07,WNW,292,12.0,-999.0,-999,-99.99,,,-99.99,,2013-05-02 15:21:00,
2013-05-02 16:27:00,51.7,-99.9,29.07,West,270,14.0,-999.0,-999,-99.99,,,-99.99,,2013-05-02 15:27:00,
2013-05-02 16:34:00,51.3,-99.9,29.07,NW,315,10.0,-999.0,-999,-99.99,,,-99.99,,2013-05-02 15:34:00,
2013-05-02 16:40:00,51.1,-99.9,29.06,WNW,292,12.0,-999.0,-999,-99.99,,,-99.99,,2013-05-02 15:40:00,
2013-05-02 16:46:00,51.0,-99.9,29.06,NW,315,14.0,-999.0,-999,-99.99,,,-99.99,,2013-05-02 15:46:00,
2013-05-02 16:52:00,50.7,-99.9,29.06,WSW,247,14.0,-999.0,-999,-99.99,,,-99.99,,2013-05-02 15:52:00,
2013-05-02 16:59:00,50.7,-99.9,29.06,WSW,247,15.0,-999.0,-999,-99.99,,,-99.99,,2013-05-02 15:59:00,
2013-05-02 17:05:00,51.6,-99.9,29.05,WNW,292,13.0,-999.0,-999,-99.99,,,-99.99,,2013-05-02 16:05:00,
2013-05-02 17:11:00,52.5,-99.9,29.05,WSW,247,10.0,-999.0,-999,-99.99,,,-99.99,,2013-05-02 16:11:00,
2013-05-02 17:17:00,52.4,-99.9,29.05,WNW,292,12.0,-999.0,-999,-99.99,,,-99.99,,2013-05-02 16:17:00,
2013-05-02 17:24:00,52.8,-99.9,29.04,NW,315,13.0,-999.0,-999,-99.99,,,-99.99,,2013-05-02 16:24:00,
2013-05-02 17:30:00,53.7,-99.9,29.04,WNW,292,10.0,-999.0,-999,-99.99,,,-99.99,,2013-05-02 16:30:00,
2013-05-02 17:36:00,53.0,-99.9,29.04,WSW,247,11.0,-999.0,-999,-99.99,,,-99.99,,2013-05-02 16:36:00,
2013-05-02 17:42:00,52.6,-99.9,29.04,West,270,11.0,-999.0,-999,-99.99,,,-99.99,,2013-05-02 16:42:00,
2013-05-02 17:49:00,52.1,-99.9,29.03,NNW,337,11.0,-999.0,-999,-99.99,,,-99.99,,2013-05-02 16:49:00,
2013-05-02 17:55:00,51.2,-99.9,29.03,WNW,292,11.0,-999.0,-999,-99.99,,,-99.99,,2013-05-02 16:55:00,
2013-05-02 18:01:00,50.8,-99.9,29.03,WSW,247,10.0,-999.0,-999,-99.99,,,-99.99,,2013-05-02 17:01:00,
2013-05-02 18:07:00,50.8,-99.9,29.03,WNW,292,12.0,-999.0,-999,-99.99,,,-99.99,,2013-05-02 17:07:00,
2013-05-02 18:13:00,50.7,-99.9,29.03,West,270,11.0,-999.0,-999,-99.99,,,-99.99,,2013-05-02 17:13:00,
2013-05-02 18:20:00,50.3,-99.9,29.03,West,270,11.0,-999.0,-999,-99.99,,,-99.99,,2013-05-02 17:20:00,
2013-05-02 18:26:00,50.1,-99.9,29.03,NW,315,9.0,-999.0,-999,-99.99,,,-99.99,,2013-05-02 17:26:00,
2013-05-02 18:32:00,49.9,-99.9,29.03,West,270,9.0,-999.0,-999,-99.99,,,-99.99,,2013-05-02 17:32:00,
2013-05-02 18:38:00,49.5,-99.9,29.03,West,270,8.0,-999.0,-999,-99.99,,,-99.99,,2013-05-02 17:38:00,
2013-05-02 18:45:00,49.4,-99.9,29.02,WNW,292,8.0,-999.0,-999,-99.99,,,-99.99,,2013-05-02 17:45:00,
2013-05-02 18:51:00,49.3,-99.9,29.03,WNW,292,8.0,-999.0,-999,-99.99,,,-99.99,,2013-05-02 17:51:00,
2013-05-02 18:57:00,49.3,-99.9,29.02,WNW,292,6.0,-999.0,-999,-99.99,,,-99.99,,2013-05-02 17:57:00,
2013-05-02 19:03:00,49.4,-99.9,29.02,NW,315,6.0,-999.0,-999,-99.99,,,-99.99,,2013-05-02 18:03:00,
2013-05-02 19:10:00,49.3,-99.9,29.02,West,270,8.0,-999.0,-999,-99.99,,,-99.99,,2013-05-02 18:10:00,
2013-05-02 19:16:00,49.1,-99.9,29.02,West,270,9.0,-999.0,-999,-99.99,,,-99.99,,2013-05-02 18:16:00,
2013-05-02 19:22:00,48.5,-99.9,29.02,WNW,292,9.0,-999.0,-999,-99.99,,,-99.99,,2013-05-02 18:22:00,
2013-05-02 19:28:00,48.2,-99.9,29.02,West,270,11.0,-999.0,-999,-99.99,,,-99.99,,2013-05-02 18:28:00,
2013-05-02 19:35:00,48.0,-99.9,29.02,WNW,292,8.0,-999.0,-999,-99.99,,,-99.99,,2013-05-02 18:35:00,
2013-05-02 19:40:00,47.8,-99.9,29.02,NW,315,9.0,-999.0,-999,-99.99,,,-99.99,,2013-05-02 18:40:00,
2013-05-02 19:46:00,47.5,-99.9,29.01,WNW,292,10.0,-999.0,-999,-99.99,,,-99.99,,2013-05-02 18:46:00,
2013-05-02 19:52:00,47.5,-99.9,29.01,West,270,12.0,-999.0,-999,-99.99,,,-99.99,,2013-05-02 18:52:00,
2013-05-02 19:59:00,47.4,-99.9,29.01,West,270,9.0,-999.0,-999,-99.99,,,-99.99,,2013-05-02 18:59:00,
2013-05-02 20:05:00,47.2,-99.9,29.01,NW,315,10.0,-999.0,-999,-99.99,,,-99.99,,2013-05-02 19:05:00,
2013-05-02 20:11:00,47.0,-99.9,29.01,West,270,12.0,-999.0,-999,-99.99,,,-99.99,,2013-05-02 19:11:00,
2013-05-02 20:18:00,46.7,-99.9,29.01,NW,315,12.0,-999.0,-999,-99.99,,,-99.99,,2013-05-02 19:18:00,
2013-05-02 20:24:00,46.4,-99.9,29.01,NW,315,12.0,-999.0,-999,-99.99,,,-99.99,,2013-05-02 19:24:00,
2013-05-02 20:30:00,46.2,-99.9,29.01,WNW,292,13.0,-999.0,-999,-99.99,,,-99.99,,2013-05-02 19:30:00,
2013-05-02 20:36:00,46.1,-99.9,29.00,West,270,11.0,-999.0,-999,-99.99,,,-99.99,,2013-05-02 19:36:00,
2013-05-02 20:43:00,45.8,-99.9,29.00,West,270,10.0,-999.0,-999,-99.99,,,-99.99,,2013-05-02 19:43:00,
2013-05-02 20:49:00,45.4,-99.9,29.00,WSW,247,10.0,-999.0,-999,-99.99,,,-99.99,,2013-05-02 19:49:00,
2013-05-02 20:55:00,45.2,-99.9,29.00,West,270,11.0,-999.0,-999,-99.99,,,-99.99,,2013-05-02 19:55:00,
2013-05-02 21:01:00,44.9,-99.9,29.00,WNW,292,10.0,-999.0,-999,-99.99,,,-99.99,,2013-05-02 20:01:00,
2013-05-02 21:08:00,44.8,-99.9,29.00,West,270,8.0,-999.0,-999,-99.99,,,-99.99,,2013-05-02 20:08:00,
2013-05-02 21:13:00,44.7,-99.9,29.00,WNW,292,-999.0,-999.0,-999,-99.99,,,-99.99,,2013-05-02 20:13:00,
2013-05-02 21:19:00,44.6,-99.9,28.99,WNW,292,11.0,-999.0,-999,-99.99,,,-99.99,,2013-05-02 20:19:00,
2013-05-02 21:26:00,44.7,-99.9,28.99,West,270,10.0,-999.0,-999,-99.99,,,-99.99,,2013-05-02 20:26:00,
2013-05-02 21:32:00,44.6,-99.9,28.99,NW,315,8.0,-999.0,-999,-99.99,,,-99.99,,2013-05-02 20:32:00,
2013-05-02 21:38:00,44.6,-99.9,28.99,WNW,292,9.0,-999.0,-999,-99.99,,,-99.99,,2013-05-02 20:38:00,
2013-05-02 21:45:00,44.6,-99.9,28.99,West,270,9.0,-999.0,-999,-99.99,,,-99.99,,2013-05-02 20:45:00,
2013-05-02 21:51:00,44.6,-99.9,28.99,WSW,247,12.0,-999.0,-999,-99.99,,,-99.99,,2013-05-02 20:51:00,
2013-05-02 21:57:00,44.6,-99.9,28.98,West,270,8.0,-999.0,-999,-99.99,,,-99.99,,2013-05-02 20:57:00,
2013-05-02 22:03:00,44.6,-99.9,28.98,West,270,8.0,-999.0,-999,-99.99,,,-99.99,,2013-05-02 21:03:00,
2013-05-02 22:10:00,44.5,-99.9,28.98,West,270,10.0,-999.0,-999,-99.99,,,-99.99,,2013-05-02 21:10:00,
2013-05-02 22:16:00,44.6,-99.9,28.98,WNW,292,8.0,-999.0,-999,-99.99,,,-99.99,,2013-05-02 21:16:00,
2013-05-02 22:22:00,44.7,-99.9,28.97,West,270,11.0,-999.0,-999,-99.99,,,-99.99,,2013-05-02 21:22:00,
2013-05-02 22:28:00,44.7,-99.9,28.97,NW,315,11.0,-999.0,-999,-99.99,,,-99.99,,2013-05-02 21:28:00,
2013-05-02 22:35:00,44.7,-99.9,28.97,WNW,292,10.0,-999.0,-999,-99.99,,,-99.99,,2013-05-02 21:35:00,
2013-05-02 22:41:00,44.9,-99.9,28.97,West,270,10.0,-999.0,-999,-99.99,,,-99.99,,2013-05-02 21:41:00,
2013-05-02 22:47:00,45.0,-99.9,28.96,WSW,247,8.0,-999.0,-999,-99.99,,,-99.99,,2013-05-02 21:47:00,
2013-05-02 22:53:00,45.2,-99.9,28.96,NW,315,8.0,-999.0,-999,-99.99,,,-99.99,,2013-05-02 21:53:00,
2013-05-02 23:00:00,45.3,-99.9,28.96,West,270,11.0,-999.0,-999,-99.99,,,-99.99,,2013-05-02 22:00:00,
2013-05-02 23:05:00,45.3,-99.9,28.96,West,270,-999.0,-999.0,-999,-99.99,,,-99.99,,2013-05-02 22:05:00,
2013-05-02 23:11:00,45.3,-99.9,28.96,West,270,5.0,-999.0,-999,-99.99,,,-99.99,,2013-05-02 22:11:00,
2013-05-02 23:17:00,45.0,-99.9,28.96,WSW,247,10.0,-999.0,-999,-99.99,,,-99.99,,2013-05-02 22:17:00,
2013-05-02 23:24:00,44.7,-99.9,28.96,NNW,337,13.0,-999.0,-999,-99.99,,,-99.99,,2013-05-02 22:24:00,
2013-05-02 23:30:00,44.5,-99.9,28.96,NNW,337,14.0,-999.0,-999,-99.99,,,-99.99,,2013-05-02 22:30:00,
2013-05-02 23:36:00,44.2,-99.9,28.96,West,270,12.0,-999.0,-999,-99.99,,,-99.99,,2013-05-02 22:36:00,
2013-05-02 23:43:00,44.2,-99.9,28.95,WSW,247,9.0,-999.0,-999,-99.99,,,-99.99,,2013-05-02 22:43:00,
2013-05-02 23:49:00,44.2,-99.9,28.95,WSW,247,8.0,-999.0,-999,-99.99,,,-99.99,,2013-05-02 22:49:00,
2013-05-02 23:55:00,44.0,-99.9,28.95,WSW,247,8.0,-999.0,-999,-99.99,,,-99.99,,2013-05-02 22:55:00,